This is the latest recevied weather packets stored in our database for station/object KF4UQS-14. If no packets are shown the sender has not sent any weather packets the latest 10 day(s).
| Time | Temp. | Humidity | Pressure | Rain* | Wind** | Luminosity | Snow |
|---|---|---|---|---|---|---|---|
| 1778255799 | 18.33° C | 60% | 1017.7 hPa | 0 mm | - | 881 W/m² | - |
| 1778255496 | 17.78° C | 54% | 1017.6 hPa | 0 mm | - | 817 W/m² | - |
| 1778255193 | 17.22° C | 59% | 1017.8 hPa | 0 mm | - | 799 W/m² | - |
| 1778254890 | 17.78° C | 65% | 1018 hPa | 0 mm | - | 772 W/m² | - |
| 1778254586 | 17.22° C | 61% | 1017.8 hPa | 0 mm | - | 780 W/m² | - |
| 1778254283 | 16.67° C | 64% | 1017.9 hPa | 0 mm | - | 778 W/m² | - |
| 1778253980 | 17.22° C | 62% | 1017.8 hPa | 0 mm | - | 383 W/m² | - |
| 1778253675 | 16.67° C | 57% | 1017.8 hPa | 0 mm | - | 756 W/m² | - |
| 1778253367 | 16.67° C | 63% | 1017.6 hPa | 0 mm | - | 732 W/m² | - |
| 1778253064 | 16.67° C | 65% | 1017.7 hPa | 0 mm | - | 732 W/m² | - |
| 1778252760 | 16.67° C | 69% | 1017.7 hPa | 0 mm | - | 728 W/m² | - |
| 1778252456 | 16.67° C | 63% | 1017.7 hPa | 0 mm | - | 226 W/m² | - |
| 1778252153 | 16.67° C | 67% | 1017.5 hPa | 0 mm | - | 717 W/m² | - |
| 1778251850 | 16.11° C | 68% | 1017.6 hPa | 0 mm | - | 712 W/m² | - |
| 1778251548 | 16.11° C | 67% | 1017.7 hPa | 0 mm | - | 729 W/m² | - |
| 1778251245 | 16.11° C | 68% | 1017.7 hPa | 0 mm | - | 658 W/m² | - |
| 1778250942 | 16.67° C | 71% | 1017.5 hPa | 0 mm | - | 645 W/m² | - |
| 1778250638 | 16.11° C | 69% | 1017.4 hPa | 0 mm | - | 629 W/m² | - |
| 1778250336 | 16.11° C | 67% | 1017.4 hPa | 0 mm | - | 613 W/m² | - |
| 1778250032 | 16.11° C | 69% | 1017.5 hPa | 0 mm | - | 602 W/m² | - |
| 1778249728 | 16.11° C | 67% | 1017.4 hPa | 0 mm | - | 573 W/m² | - |
| 1778249427 | 15.56° C | 70% | 1017.3 hPa | 0 mm | - | 73 W/m² | - |
| 1778249124 | 15.56° C | 73% | 1017.4 hPa | 0 mm | - | 60 W/m² | - |
| 1778248820 | 15.56° C | 71% | 1017.6 hPa | 0 mm | - | 59 W/m² | - |
| 1778248515 | 15.56° C | 70% | 1017.2 hPa | 0 mm | - | 57 W/m² | - |
* Rain latest hour (hover to see other rain measurements)
** Current wind speed in m/s (hover to see current wind gust speed)